Regional Weather Roundup
Issued by NWS

Home | Current Version | Previous Version | Text Only | Print | Product List | Glossary Off
Versions: 1 2 3 4 5 6 7 8 9 10 11 12 13 14 15 16 17 18 19 20 21 22 23 24 25 26 27 28

000
ASUS45 KBOU 201210
RWRCO

WEATHER ROUNDUP FOR COLORADO
NATIONAL WEATHER SERVICE DENVER/BOULDER CO
600 AM MDT SUN MAY 20 2018

NOTE: "FAIR" INDICATES FEW OR NO CLOUDS BELOW 12000 FEET WITH NO
SIGNIFICANT WEATHER AND/OR OBSTRUCTIONS TO VISIBILITY.

COZ001>005-013-030-031-201300-
...NORTHWEST COLORADO...

CITY           SKY/WX    TMP DP  RH WIND       PRES   REMARKS
CRAIG          FAIR      35  34  96 CALM      30.13S
HAYDEN         FAIR      39  36  89 E8        30.15S
MEEKER         FAIR      35  32  88 E3        30.12S
RANGELY        FAIR      47  39  73 E10       30.07R
RABBIT EARS PA FAIR      32  32 100 W6        30.26S WCI  26
STEAMBOAT SPGS FAIR      33  33 100 CALM      30.15S
WALDEN         CLOUDY    28  27  93 SE3       30.21S
$$

COZ006>008-011-201300-
...WEST CENTRAL VALLEYS...

CITY           SKY/WX    TMP DP  RH WIND       PRES   REMARKS
GRAND JUNCTION FAIR      56  37  49 E13       30.02S
MONTROSE       FAIR      43  32  65 SE8       30.10R
EAGLE          FAIR      33  31  92 SE3       30.19S
RIFLE          FAIR      41  37  86 SE6       30.09S
DELTA          FAIR      50  35  55 E5        30.07R
NUCLA          FAIR      46  28  49 CALM      30.08S
$$

COZ017>023-064>068-201300-
...SOUTHWEST COLORADO...

CITY           SKY/WX    TMP DP  RH WIND       PRES   REMARKS
DURANGO        FAIR      39  26  59 E3        30.12R
CORTEZ         FAIR      40  27  59 NE9       30.05R
PAGOSA SPRINGS FAIR      39  26  59 CALM      30.19R
TELLURIDE      FAIR      40  27  58 SE3       30.23R
WOLF CREEK PAS FAIR      34  19  55 S5        30.42S WCI  30
$$

COZ009-010-012-014-032>034-037-058>063-201300-
...CENTRAL COLORADO...

CITY           SKY/WX    TMP DP  RH WIND       PRES   REMARKS
ASPEN          FAIR      33 -23   8 S7        30.17R WCI  27
BUENA VISTA    CLOUDY    40  37  89 SE7       30.26R
COPPER MTN     FAIR      36  23  60 S10       30.35R
BERTHOUD PASS  FAIR      30  18  59 W18       30.35R WCI  18
COTTONWOOD PAS FOG       41  39  93 CALM      30.31R VSB 3/4
GUNNISON       FAIR      33  31  92 CALM      30.24R
GRANBY         CLOUDY    34  34  99 E3        30.24R FOG
KREMMLING      FAIR      34  30  86 CALM      30.22R
LEADVILLE      MOCLDY    32  31  96 SE5       30.28R WCI  27
MONARCH PASS   FAIR      32  28  86 MISG      30.46S
SALIDA         CLOUDY    43  38  85 CALM      30.32S
SUNLIGHT       FAIR      36  23  60 SW5       30.31S
WILKERSON PASS SNOW      32  30  93 SW13G20   30.36R VSB<1/4 WCI  22
$$

COZ069>075-201300-
...SAN LUIS VALLEY/SANGRE DE CRISTO MOUNTAINS...

CITY           SKY/WX    TMP DP  RH WIND       PRES   REMARKS
ALAMOSA        FAIR      34  30  85 CALM      30.22S
DEL NORTE      FAIR      34  26  71 W8        30.25R WCI  27
LA VETA PASS   FAIR      36  32  87 E8        30.42S
SAGUACHE       NOT AVBL
$$

COZ035-036-038>040-201300-
...NORTHERN COLORADO FRONT RANGE...

CITY           SKY/WX    TMP DP  RH WIND       PRES   REMARKS
DENVER INTL AP CLOUDY    41  39  93 E10       30.25R
AURORA         CLOUDY    41  41 100 E8        30.25R
FRONT RANGE AP CLOUDY    42  41  97 E8        30.27R
ERIE MUNI ARPT LGT RAIN  42  41  95 E5        30.30R
BOULDER MUN AP DRIZZLE   41  41 100 NE3       30.24R
CENTENNIAL     CLOUDY    42  40  92 SE5       30.24R
BROOMFIELD     CLOUDY    41  41 100 E6        30.25R FOG
FORT COLLINS   CLOUDY    42  41  96 E9        30.26R FOG
LONGMONT       LGT RAIN  44  42  94 E3        30.27R
$$

COZ041-046-047-076>085-087-088-201300-
...PIKES PEAK/PALMER DIVIDE AND SOUTHERN FOOTHILLS...

CITY           SKY/WX    TMP DP  RH WIND       PRES   REMARKS
COLO. SPRINGS  LGT RAIN  43  41  93 SE7       30.25S FOG
A. F. ACADEMY  CLOUDY    41  41  99 S8        30.24R
SCHRIEVER AFB  NOT AVBL
CHEYENNE MTN   LGT RAIN  39  39 100 SE6       30.20R VSB 1/8
ELLICOTT       CLOUDY   N/A N/A N/A E8        30.25R
FALCON         LGT RAIN  39  38  97 E5        30.27R
FORT CARSON    LGT RAIN  43  41  93 SE7       30.24R
LIMON          CLOUDY    39  39 100 NE5       30.26R
MONUMENT HILL  CLOUDY    36  36 100 CALM      30.27R FOG
CANON CITY     CLOUDY    48  45  87 SE6       30.23R
WALSENBURG     CLOUDY    45  43  93 E6        30.25R
TRINIDAD       CLOUDY    44  43  96 E7        30.25R
$$

COZ042>045-048>051-090-091-201300-
...NORTHEAST COLORADO...

CITY           SKY/WX    TMP DP  RH WIND       PRES   REMARKS
GREELEY ARPT   NOT AVBL
AKRON          CLOUDY    41  39  93 NW3       30.26R
BURLINGTON     MOCLDY    43  41  93 NW10      30.24S
WRAY           FAIR      41  41 100 NW7       30.25R
YUMA           CLOUDY    41  39  93 NW6       30.26R
STERLING       CLOUDY    43  41  93 CALM      30.26R
HOLYOKE        CLOUDY    45  41  87 NW7       30.24S
FORT MORGAN    CLOUDY    41  38  90 CALM      30.27R
$$

COZ086-089-092>099-201300-
...SOUTHEAST COLORADO...

CITY           SKY/WX    TMP DP  RH WIND       PRES   REMARKS
PUEBLO         CLOUDY    46  41  82 SE8       30.24R
LA JUNTA       CLOUDY    46  41  82 CALM      30.26R
LAMAR          CLOUDY    47  40  76 MISG      30.23R
SPRINGFIELD      N/A     43  41  93 N15       30.23R
$$




USA.gov is the U.S. government's official web portal to all federal, state and local government web resources and services.